FW1310 Weather Reports


Display with metric or nautical units.
time (UTC)temp
F
wind
direction
speed
MPH
gust
MPH
rain 1hr
in
rain 24hr
in
rain mn
in
humidity
%
barometer
mb
20260905224503 98 115 1.0 3.0 0.00 0.00 0.00 39 994.7
20260905223503 99 142 2.0 5.0 0.00 0.00 0.00 39 994.7
20260905223003 99 99 2.0 6.0 0.00 0.00 0.00 40 994.5
20260905222502 100 193 2.0 3.0 0.00 0.00 0.00 39 994.7
20260905222003 99 124 2.0 3.0 0.00 0.00 0.00 39 994.9
20260905221504 98 201 1.0 3.0 0.00 0.00 0.00 40 994.9
20260905221002 98 196 2.0 5.0 0.00 0.00 0.00 39 994.8
20260905220503 98 75 3.0 3.0 0.00 0.00 0.00 39 994.7
20260905215502 98 207 5.0 6.0 0.00 0.00 0.00 38 994.8
20260905214503 98 83 1.0 3.0 0.00 0.00 0.00 39 994.9
20260905214003 98 130 2.0 7.0 0.00 0.00 0.00 41 995.0
20260905213502 98 182 2.0 5.0 0.00 0.00 0.00 41 995.1
20260905213003 97 165 1.0 3.0 0.00 0.00 0.00 40 994.9
20260905212503 97 82 1.0 3.0 0.00 0.00 0.00 42 995.2
20260905212002 96 98 1.0 2.0 0.00 0.00 0.00 43 995.1
20260905211003 95 127 2.0 6.0 0.00 0.00 0.00 44 995.4
20260905210503 95 140 3.0 7.0 0.00 0.00 0.00 44 995.3
20260905210003 96 198 3.0 7.0 0.00 0.00 0.00 43 995.3
20260905205502 96 177 3.0 8.0 0.00 0.00 0.00 43 995.5
20260905205003 98 161 3.0 5.0 0.00 0.00 0.00 42 995.6
20260905204503 98 131 0.0 6.0 0.00 0.00 0.00 41 995.6
20260905204003 99 76 3.0 6.0 0.00 0.00 0.00 41 995.7
20260905203003 98 137 1.0 3.0 0.00 0.00 0.00 42 995.7
20260905202503 99 128 1.0 2.0 0.00 0.00 0.00 41 995.8
20260905202003 98 115 1.0 5.0 0.00 0.00 0.00 41 995.9
20260905201503 100 167 2.0 3.0 0.00 0.00 0.00 41 996.0
20260905200503 98 167 2.0 6.0 0.00 0.00 0.00 43 996.0
20260905200002 98 157 2.0 6.0 0.00 0.00 0.00 43 996.3
20260905195003 97 134 2.0 3.0 0.00 0.00 0.00 44 996.6
20260905194503 97 62 2.0 3.0 0.00 0.00 0.00 45 996.4
20260905194003 96 140 2.0 6.0 0.00 0.00 0.00 45 996.6
20260905193503 98 190 5.0 6.0 0.00 0.00 0.00 43 996.6
20260905193003 97 170 3.0 6.0 0.00 0.00 0.00 43 996.7
20260905192002 97 116 2.0 2.0 0.00 0.00 0.00 44 996.9
20260905191503 95 71 1.0 2.0 0.00 0.00 0.00 47 997.0
20260905191003 94 85 2.0 5.0 0.00 0.00 0.00 49 997.1
20260905190002 95 156 2.0 5.0 0.00 0.00 0.00 47 997.3
20260905185503 96 201 2.0 3.0 0.00 0.00 0.00 44 997.3
20260905185003 94 118 2.0 8.0 0.00 0.00 0.00 46 997.4
20260905184503 94 192 3.0 7.0 0.00 0.00 0.00 49 997.5
20260905183503 95 290 6.0 7.0 0.00 0.00 0.00 48 997.6
20260905183003 96 243 2.0 8.0 0.00 0.00 0.00 48 997.7
20260905182503 95 184 1.0 6.0 0.00 0.00 0.00 46 997.9
20260905182003 95 176 3.0 8.0 0.00 0.00 0.00 47 997.9
20260905181503 95 185 6.0 8.0 0.00 0.00 0.00 48 997.9
20260905181003 95 180 3.0 6.0 0.00 0.00 0.00 47 998.1
20260905180503 95 130 2.0 8.0 0.00 0.00 0.00 47 998.2
20260905180003 94 165 3.0 8.0 0.00 0.00 0.00 48 998.4
20260905175503 92 108 0.0 5.0 0.00 0.00 0.00 51 998.6
20260905175002 94 254 2.0 6.0 0.00 0.00 0.00 48 998.6
20260905174503 94 209 4.0 8.0 0.00 0.00 0.00 50 998.5
20260905173503 94 162 1.0 2.0 0.00 0.00 0.00 52 998.8
20260905173003 95 156 2.0 5.0 0.00 0.00 0.00 50 998.8
20260905172003 94 177 5.0 8.0 0.00 0.00 0.00 49 998.7
20260905171504 93 201 6.0 8.0 0.00 0.00 0.00 47 998.8
20260905171002 93 114 1.0 2.0 0.00 0.00 0.00 51 998.7
20260905170503 93 156 3.0 6.0 0.00 0.00 0.00 56 998.8
20260905164503 90 139 2.0 6.0 0.00 0.00 0.00 61 999.1
20260905164003 90 215 3.0 5.0 0.00 0.00 0.00 61 999.1
20260905163502 90 176 3.0 5.0 0.00 0.00 0.00 59 999.0
20260905163003 90 309 3.0 8.0 0.00 0.00 0.00 59 999.2
20260905162503 89 182 3.0 7.0 0.00 0.00 0.00 61 999.1
20260905162003 90 175 5.0 7.0 0.00 0.00 0.00 62 998.9
20260905161503 90 272 2.0 3.0 0.00 0.00 0.00 60 999.0
20260905161003 89 198 4.0 9.0 0.00 0.00 0.00 59 999.1
20260905160503 89 253 3.0 9.0 0.00 0.00 0.00 61 999.1
20260905160003 90 153 3.0 8.0 0.00 0.00 0.00 61 998.9
20260905155502 89 181 2.0 6.0 0.00 0.00 0.00 63 998.8
20260905155003 88 273 3.0 6.0 0.00 0.00 0.00 66 998.8
20260905154502 88 172 4.0 8.0 0.00 0.00 0.00 65 998.9
20260905154002 88 238 3.0 8.0 0.00 0.00 0.00 66 998.8
20260905153503 88 173 5.0 8.0 0.00 0.00 0.00 67 999.0
20260905153003 88 150 3.0 6.0 0.00 0.00 0.00 67 999.0
20260905152503 87 114 1.0 5.0 0.00 0.00 0.00 70 999.0
20260905152003 87 100 1.0 6.0 0.00 0.00 0.00 71 998.8
20260905151503 86 256 5.0 6.0 0.00 0.00 0.00 72 998.9
20260905151002 86 241 3.0 6.0 0.00 0.00 0.00 72 998.9
20260905150503 85 220 3.0 6.0 0.00 0.00 0.00 74 999.0
20260905150003 85 253 2.0 7.0 0.00 0.00 0.00 74 999.1
20260905145502 85 132 1.0 5.0 0.00 0.00 0.00 76 998.9
20260905145003 85 274 2.0 6.0 0.00 0.00 0.00 76 999.0
20260905144503 85 165 3.0 7.0 0.00 0.00 0.00 77 999.0
20260905144003 84 256 4.0 7.0 0.00 0.00 0.00 79 999.0
20260905143503 83 228 2.0 5.0 0.00 0.00 0.00 81 998.8
20260905143003 83 254 3.0 5.0 0.00 0.00 0.00 82 998.9
20260905142003 82 98 1.0 3.0 0.00 0.00 0.00 85 998.9
20260905141003 81 165 3.0 5.0 0.00 0.00 0.00 87 998.9
20260905140503 81 166 3.0 6.0 0.00 0.00 0.00 88 998.8
20260905140002 81 203 3.0 5.0 0.00 0.00 0.00 89 998.8
20260905134503 80 139 3.0 6.0 0.00 0.00 0.00 92 998.6
20260905134003 79 177 2.0 3.0 0.00 0.00 0.00 93 998.6
20260905133502 78 150 1.0 3.0 0.00 0.00 0.00 95 998.6
20260905133003 79 213 1.0 2.0 0.00 0.00 0.00 95 998.5
20260905132003 78 169 1.0 2.0 0.00 0.00 0.00 96 998.4
20260905131503 78 188 1.0 2.0 0.00 0.00 0.00 97 998.4
20260905130003 76 164 1.0 2.0 0.00 0.00 0.00 97 998.2
20260905125504 76 159 1.0 1.0 0.00 0.01 0.00 97 998.1
20260905125003 76 147 1.0 2.0 0.00 0.01 0.00 97 998.1
20260905124503 76 155 1.0 2.0 0.00 0.01 0.00 97 998.2
20260905124003 76 156 2.0 2.0 0.00 0.01 0.00 97 997.9
20260905123003 75 154 1.0 2.0 0.00 0.01 0.00 97 997.9
20260905122503 75 160 1.0 2.0 0.00 0.01 0.00 97 998.0
20260905121503 75 154 2.0 2.0 0.00 0.01 0.00 97 997.8
20260905121003 76 149 1.0 1.0 0.00 0.01 0.00 97 997.7
20260905120503 76 149 1.0 2.0 0.00 0.01 0.00 97 997.5
20260905120003 76 149 1.0 1.0 0.00 0.01 0.00 97 997.6
20260905115503 76 143 1.0 1.0 0.00 0.01 0.00 97 997.6
20260905115003 76 152 1.0 2.0 0.00 0.01 0.00 97 997.5
20260905114503 76 156 1.0 2.0 0.00 0.01 0.00 97 997.6
20260905114003 76 140 0.0 1.0 0.00 0.01 0.00 96 997.5
20260905113504 76 146 1.0 2.0 0.00 0.01 0.00 96 997.4
20260905113004 76 160 1.0 2.0 0.00 0.01 0.00 96 997.5
20260905112503 76 155 2.0 2.0 0.00 0.01 0.00 96 997.5
20260905112003 76 161 1.0 2.0 0.00 0.01 0.00 96 997.4
20260905111503 76 165 1.0 2.0 0.00 0.01 0.00 96 997.3
20260905111003 76 158 1.0 1.0 0.00 0.01 0.00 96 997.2
20260905110503 76 139 0.0 1.0 0.00 0.01 0.00 96 997.2
20260905105503 76 135 0.0 1.0 0.00 0.01 0.00 95 997.1
20260905105003 76 134 0.0 1.0 0.00 0.01 0.00 95 997.3
20260905104003 76 145 1.0 1.0 0.00 0.01 0.00 95 997.1
20260905103003 76 151 1.0 1.0 0.00 0.01 0.00 95 997.2
20260905102503 76 146 0.0 1.0 0.00 0.01 0.00 95 997.3
20260905102003 77 146 0.0 1.0 0.00 0.01 0.00 94 997.3
20260905101503 76 146 0.0 1.0 0.00 0.01 0.00 94 997.2
20260905101003 77 142 1.0 2.0 0.00 0.01 0.00 94 997.4
20260905100502 77 144 0.0 1.0 0.00 0.01 0.00 94 997.4
20260905100003 77 149 1.0 1.0 0.00 0.01 0.00 94 997.3
20260905095503 77 146 0.0 2.0 0.00 0.01 0.00 94 997.3
20260905095003 77 157 1.0 2.0 0.00 0.01 0.00 94 997.3
20260905094503 77 145 1.0 2.0 0.00 0.01 0.00 93 997.3
20260905093503 77 160 1.0 2.0 0.00 0.01 0.00 93 997.2
20260905093004 77 158 1.0 2.0 0.00 0.01 0.00 93 997.3
20260905092003 78 171 1.0 2.0 0.00 0.01 0.00 92 997.1
20260905091504 78 175 1.0 3.0 0.00 0.01 0.00 92 997.2
20260905091003 78 203 1.0 3.0 0.00 0.01 0.00 92 997.2
20260905090003 78 148 1.0 7.0 0.00 0.01 0.00 91 997.2
20260905085503 78 157 1.0 3.0 0.00 0.01 0.00 91 997.3
20260905085003 78 213 2.0 3.0 0.00 0.01 0.00 91 997.1
20260905084503 78 158 1.0 3.0 0.00 0.01 0.00 91 997.1
20260905084003 78 169 2.0 6.0 0.00 0.01 0.00 91 997.5
20260905083502 78 170 3.0 6.0 0.00 0.01 0.00 90 997.3
20260905083003 78 175 2.0 3.0 0.00 0.01 0.00 90 997.4
20260905082003 78 197 2.0 6.0 0.00 0.01 0.00 90 997.3
20260905080503 79 163 4.0 7.0 0.00 0.01 0.00 90 997.3
20260905080003 79 174 3.0 7.0 0.00 0.01 0.00 89 997.4
20260905075503 79 214 3.0 6.0 0.00 0.01 0.00 89 997.4
20260905075003 79 173 4.0 6.0 0.00 0.01 0.00 89 997.5
20260905074503 79 240 3.0 5.0 0.00 0.01 0.00 89 997.7
20260905074003 79 174 2.0 7.0 0.00 0.01 0.00 88 997.4
20260905073503 79 199 3.0 7.0 0.00 0.01 0.00 88 997.7
20260905073003 79 239 3.0 6.0 0.00 0.01 0.00 88 997.5
20260905072503 79 170 3.0 6.0 0.00 0.01 0.00 87 997.8
20260905072003 79 133 2.0 3.0 0.00 0.01 0.00 87 997.6
20260905071504 80 161 3.0 6.0 0.00 0.01 0.00 87 997.4
20260905071003 80 195 3.0 3.0 0.00 0.01 0.00 86 997.8
20260905070503 80 206 5.0 9.0 0.00 0.01 0.00 86 997.6
20260905065502 80 183 3.0 5.0 0.00 0.01 0.00 85 997.8
20260905065003 80 190 3.0 5.0 0.00 0.01 0.00 85 997.8
20260905064503 80 177 4.0 7.0 0.00 0.01 0.00 84 997.9
20260905064003 80 169 5.0 7.0 0.00 0.01 0.00 84 997.9
20260905063503 80 181 5.0 7.0 0.00 0.01 0.00 83 997.8
20260905063003 80 177 3.0 7.0 0.00 0.01 0.00 83 997.7
20260905062503 80 193 4.0 6.0 0.00 0.01 0.00 83 997.8
20260905062003 80 148 3.0 8.0 0.00 0.01 0.00 82 998.0
20260905061503 80 214 7.0 8.0 0.00 0.01 0.00 82 997.7
20260905061003 80 178 3.0 6.0 0.00 0.01 0.00 81 997.9
20260905060003 80 138 3.0 6.0 0.00 0.01 0.00 80 997.9
20260905055003 80 193 4.0 7.0 0.00 0.01 0.00 80 997.9
20260905054503 80 167 5.0 7.0 0.00 0.01 0.00 79 998.1
20260905054003 80 136 2.0 9.0 0.00 0.01 0.00 79 998.1
20260905053503 81 183 3.0 6.0 0.00 0.01 0.00 79 997.8
20260905053003 81 201 5.0 10.0 0.00 0.01 0.00 78 997.8
20260905052503 81 187 3.0 8.0 0.00 0.01 0.00 78 998.0
20260905052003 81 219 5.0 8.0 0.00 0.01 0.00 78 998.1
20260905051003 81 178 6.0 9.0 0.00 0.01 0.00 77 998.0
20260905050503 81 206 4.0 6.0 0.00 0.01 0.00 77 997.8
20260905050003 81 175 2.0 5.0 0.00 0.01 0.00 77 998.1
20260905045503 81 182 3.0 6.0 0.00 0.01 0.01 77 998.2
20260905045003 81 180 3.0 6.0 0.00 0.01 0.01 77 998.2
20260905044503 81 137 2.0 8.0 0.00 0.01 0.01 76 998.2
20260905044003 81 188 3.0 5.0 0.00 0.01 0.01 76 998.0
20260905043004 82 158 3.0 6.0 0.00 0.01 0.01 75 998.0
20260905042503 82 184 3.0 6.0 0.00 0.01 0.01 75 997.9
20260905042003 82 142 2.0 7.0 0.00 0.01 0.01 75 998.0
20260905041503 82 191 2.0 6.0 0.00 0.01 0.01 74 997.9
20260905041003 82 168 2.0 5.0 0.00 0.01 0.01 74 998.0
20260905040503 82 155 3.0 7.0 0.00 0.01 0.01 74 998.0
20260905040003 82 194 3.0 6.0 0.00 0.01 0.01 74 997.9
20260905035003 82 158 3.0 5.0 0.00 0.01 0.01 73 997.7
20260905034503 82 151 2.0 5.0 0.00 0.01 0.01 73 997.9
20260905034003 82 152 2.0 7.0 0.00 0.01 0.01 73 997.9
20260905032503 82 133 2.0 6.0 0.00 0.01 0.01 74 997.9
20260905031503 83 172 2.0 5.0 0.00 0.01 0.01 74 997.8
20260905030503 83 142 1.0 3.0 0.00 0.01 0.01 74 997.5
20260905030003 83 164 3.0 5.0 0.00 0.01 0.01 74 997.6
20260905025503 83 192 3.0 5.0 0.00 0.01 0.01 74 997.7
20260905024503 83 150 3.0 5.0 0.00 0.01 0.01 74 997.5
20260905024003 83 141 2.0 3.0 0.00 0.01 0.01 73 997.5
20260905023503 83 160 2.0 6.0 0.00 0.01 0.01 73 997.4
20260905023004 83 179 3.0 5.0 0.00 0.01 0.01 73 997.4
20260905022503 83 168 2.0 5.0 0.00 0.01 0.01 73 997.3
20260905022003 83 171 3.0 5.0 0.00 0.01 0.01 73 997.2
20260905021503 83 132 2.0 5.0 0.00 0.01 0.01 73 997.2
20260905021002 83 174 2.0 5.0 0.00 0.01 0.01 74 997.3
20260905020502 83 140 2.0 5.0 0.00 0.01 0.01 75 997.2
20260905015503 83 163 3.0 6.0 0.00 0.01 0.01 75 997.1
20260905015003 84 153 2.0 5.0 0.00 0.01 0.01 74 997.1
20260905014503 84 142 2.0 6.0 0.00 0.01 0.01 74 997.0
20260905014003 84 140 2.0 6.0 0.00 0.01 0.01 74 996.8
20260905013503 84 139 1.0 6.0 0.00 0.01 0.01 74 996.8
20260905013003 84 139 2.0 5.0 0.00 0.01 0.01 73 996.8
20260905012503 84 182 3.0 5.0 0.00 0.01 0.01 73 996.7
20260905011502 85 147 2.0 7.0 0.00 0.01 0.01 72 996.8
20260905011003 85 158 2.0 6.0 0.00 0.01 0.01 71 996.5
20260905010503 85 149 2.0 6.0 0.00 0.01 0.01 71 996.6
20260905010003 85 145 2.0 7.0 0.00 0.01 0.01 70 996.6
20260905005003 86 119 2.0 5.0 0.00 0.01 0.01 69 996.7
20260905004502 86 116 1.0 7.0 0.00 0.01 0.01 69 996.6
20260905003003 86 180 5.0 9.0 0.00 0.01 0.01 68 996.4
20260905002503 87 167 3.0 9.0 0.00 0.01 0.01 67 996.3
20260905002003 87 104 2.0 8.0 0.00 0.01 0.01 66 996.3
20260905001503 87 153 5.0 10.0 0.00 0.01 0.01 65 996.2
20260905001003 88 202 6.0 10.0 0.00 0.01 0.01 63 996.1
20260905000503 88 191 3.0 10.0 0.00 0.01 0.01 63 996.1
20260905000002 88 193 5.0 10.0 0.00 0.01 0.01 62 996.2
20260904235502 89 119 2.0 6.0 0.00 0.01 0.01 62 996.0
20260904235003 89 192 3.0 8.0 0.00 0.01 0.01 61 995.9
20260904234503 90 153 4.0 8.0 0.00 0.01 0.01 60 995.9
20260904234003 90 235 4.0 8.0 0.00 0.01 0.01 60 995.9
20260904233503 91 333 2.0 14.0 0.00 0.01 0.01 59 995.7
20260904233003 93 196 4.0 9.0 0.00 0.01 0.01 51 995.8
20260904232502 93 182 4.0 10.0 0.00 0.01 0.01 44 995.7
20260904232003 94 201 3.0 6.0 0.00 0.01 0.01 44 995.8
20260904231503 94 202 5.0 8.0 0.00 0.01 0.01 45 995.8
20260904231003 94 193 3.0 6.0 0.00 0.01 0.01 45 995.9
20260904230503 94 163 3.0 7.0 0.00 0.01 0.01 45 995.8
20260904230003 94 196 4.0 7.0 0.00 0.01 0.01 45 995.9
20260904225503 94 16 5.0 7.0 0.00 0.01 0.01 44 995.9
20260904225002 94 137 3.0 6.0 0.00 0.01 0.01 43 995.8